Photometre #525[NE_1.6] FORTH_RSLab AOT

File : 20220928_525.hum

28/09/2022,04:55:10,TEMP=28.7,BA=5.24,STAT.s
28/09/2022,04:58:19,TEMP=28.7,BA=5.24,STAT.s
28/09/2022,05:00:11,TEMP=28.7,BA=5.24,STAT.s
28/09/2022,05:02:00,TEMP=28.7,BA=5.24,STAT.s
28/09/2022,05:05:11,TEMP=28.7,BA=5.24,STAT.s
28/09/2022,05:06:23,TEMP=28.7,BA=5.24,STAT.s
28/09/2022,05:10:11,TEMP=28.7,BA=5.28,STAT.s
28/09/2022,05:11:40,TEMP=28.7,BA=5.28,STAT.s
28/09/2022,05:15:11,TEMP=28.7,BA=5.28,STAT.s
28/09/2022,05:18:10,TEMP=28.7,BA=5.28,STAT.s
28/09/2022,05:20:11,TEMP=28.7,BA=5.28,STAT.s
28/09/2022,05:25:11,TEMP=28.7,BA=5.28,STAT.s
28/09/2022,05:26:23,TEMP=28.7,BA=5.28,STAT.s
28/09/2022,05:30:11,TEMP=28.7,BA=5.32,STAT.s
28/09/2022,05:30:27,TEMP=28.7,BA=5.32,STAT.s
28/09/2022,05:34:42,TEMP=28.7,BA=5.32,STAT.s
28/09/2022,05:35:11,TEMP=28.7,BA=5.32,STAT.s
28/09/2022,05:39:38,TEMP=28.7,BA=5.32,STAT.s
28/09/2022,05:40:11,TEMP=28.7,BA=5.32,STAT.s
28/09/2022,05:45:11,TEMP=28.7,BA=5.32,STAT.s
28/09/2022,05:45:27,TEMP=28.7,BA=5.32,STAT.s
28/09/2022,05:50:11,TEMP=28.7,BA=5.36,STAT.s
28/09/2022,05:51:42,TEMP=28.7,BA=5.36,STAT.s
28/09/2022,05:55:11,TEMP=28.7,BA=5.36,STAT.s
28/09/2022,05:59:10,TEMP=28.7,BA=5.36,STAT.s
28/09/2022,06:00:11,TEMP=28.7,BA=5.36,STAT.s
28/09/2022,06:05:11,TEMP=28.7,BA=5.36,STAT.s
28/09/2022,06:07:56,TEMP=28.7,BA=5.36,STAT.s
28/09/2022,06:10:11,TEMP=28.7,BA=5.36,STAT.s
28/09/2022,06:15:11,TEMP=28.7,BA=5.36,STAT.s
28/09/2022,06:18:25,TEMP=28.7,BA=5.36,STAT.s
28/09/2022,06:20:11,TEMP=28.7,BA=5.36,STAT.s
28/09/2022,06:25:11,TEMP=28.7,BA=5.36,STAT.s
28/09/2022,06:30:11,TEMP=28.7,BA=5.40,STAT.s
28/09/2022,06:31:13,TEMP=28.7,BA=5.40,STAT.s
28/09/2022,06:35:11,TEMP=28.7,BA=5.40,STAT.s
28/09/2022,06:40:11,TEMP=28.7,BA=5.40,STAT.s
28/09/2022,06:45:11,TEMP=28.7,BA=5.40,STAT.s
28/09/2022,06:47:17,TEMP=28.7,BA=5.40,STAT.s
28/09/2022,06:50:11,TEMP=28.7,BA=5.36,STAT.s
28/09/2022,06:55:00,TEMP=28.7,BA=5.36,STAT.s
28/09/2022,07:00:11,TEMP=28.7,BA=5.44,STAT.s
28/09/2022,07:05:11,TEMP=28.7,BA=5.44,STAT.s
28/09/2022,07:10:00,TEMP=28.7,BA=5.44,STAT.s
28/09/2022,07:15:11,TEMP=28.7,BA=5.40,STAT.s
28/09/2022,07:20:11,TEMP=28.7,BA=5.48,STAT.s
28/09/2022,07:25:00,TEMP=28.7,BA=5.48,STAT.s
28/09/2022,07:30:11,TEMP=28.7,BA=5.48,STAT.s
28/09/2022,07:35:11,TEMP=28.7,BA=5.48,STAT.s
28/09/2022,07:40:00,TEMP=28.7,BA=5.48,STAT.s
28/09/2022,07:45:11,TEMP=28.7,BA=5.48,STAT.s
28/09/2022,07:50:11,TEMP=28.7,BA=5.52,STAT.s
28/09/2022,07:55:00,TEMP=28.7,BA=5.52,STAT.s
28/09/2022,08:00:11,TEMP=28.7,BA=5.52,STAT.s
28/09/2022,08:05:11,TEMP=28.7,BA=5.52,STAT.s
28/09/2022,08:10:00,TEMP=28.7,BA=5.52,STAT.s
28/09/2022,08:15:11,TEMP=28.7,BA=5.48,STAT.s
28/09/2022,08:20:11,TEMP=28.7,BA=5.52,STAT.s
28/09/2022,08:25:00,TEMP=28.7,BA=5.52,STAT.s
28/09/2022,08:30:11,TEMP=28.7,BA=5.52,STAT.s
28/09/2022,08:35:11,TEMP=28.7,BA=5.52,STAT.s
28/09/2022,08:40:00,TEMP=28.7,BA=5.52,STAT.s
28/09/2022,08:45:11,TEMP=28.7,BA=5.48,STAT.s
28/09/2022,08:50:11,TEMP=28.7,BA=5.48,STAT.s
28/09/2022,08:55:00,TEMP=28.7,BA=5.48,STAT.s
28/09/2022,09:00:11,TEMP=28.7,BA=5.48,STAT.s
28/09/2022,09:05:11,TEMP=28.7,BA=5.48,STAT.s
28/09/2022,09:10:00,TEMP=28.7,BA=5.48,STAT.s
28/09/2022,09:15:11,TEMP=28.7,BA=5.48,STAT.s
28/09/2022,09:20:11,TEMP=28.7,BA=5.48,STAT.s
28/09/2022,09:25:00,TEMP=28.7,BA=5.48,STAT.s
28/09/2022,09:30:11,TEMP=28.7,BA=5.48,STAT.s
28/09/2022,09:35:11,TEMP=28.7,BA=5.48,STAT.s
28/09/2022,09:40:00,TEMP=28.7,BA=5.48,STAT.s
28/09/2022,09:45:11,TEMP=28.7,BA=5.44,STAT.s
28/09/2022,09:50:11,TEMP=28.7,BA=5.48,STAT.s
28/09/2022,09:55:00,TEMP=28.7,BA=5.48,STAT.s
28/09/2022,10:00:11,TEMP=28.7,BA=5.44,STAT.s
28/09/2022,10:05:11,TEMP=28.7,BA=5.44,STAT.s
28/09/2022,10:10:00,TEMP=28.7,BA=5.44,STAT.s
28/09/2022,10:15:11,TEMP=28.7,BA=5.44,STAT.s
28/09/2022,10:20:11,TEMP=28.7,BA=5.44,STAT.s
28/09/2022,10:25:00,TEMP=28.7,BA=5.44,STAT.s
28/09/2022,10:30:11,TEMP=28.7,BA=5.44,STAT.s
28/09/2022,10:35:11,TEMP=28.7,BA=5.44,STAT.s
28/09/2022,10:40:00,TEMP=28.7,BA=5.44,STAT.s
28/09/2022,10:45:11,TEMP=28.7,BA=5.44,STAT.s
28/09/2022,10:50:11,TEMP=28.7,BA=5.44,STAT.s
28/09/2022,10:55:00,TEMP=28.7,BA=5.44,STAT.s
28/09/2022,11:00:11,TEMP=28.7,BA=5.44,STAT.s
28/09/2022,11:05:11,TEMP=28.7,BA=5.44,STAT.s
28/09/2022,11:10:00,TEMP=28.7,BA=5.44,STAT.s
28/09/2022,11:15:11,TEMP=28.7,BA=5.40,STAT.s
28/09/2022,11:20:11,TEMP=28.7,BA=5.40,STAT.s
28/09/2022,11:25:00,TEMP=28.7,BA=5.40,STAT.s
28/09/2022,11:30:11,TEMP=28.7,BA=5.40,STAT.s
28/09/2022,11:35:11,TEMP=28.7,BA=5.40,STAT.s
28/09/2022,11:40:00,TEMP=28.7,BA=5.40,STAT.s
28/09/2022,11:45:11,TEMP=28.7,BA=5.40,STAT.s
28/09/2022,11:50:11,TEMP=28.7,BA=5.40,STAT.s
28/09/2022,11:55:00,TEMP=28.7,BA=5.40,STAT.s
28/09/2022,12:00:11,TEMP=28.7,BA=5.40,STAT.s
28/09/2022,12:05:11,TEMP=28.7,BA=5.40,STAT.s
28/09/2022,12:10:00,TEMP=28.7,BA=5.40,STAT.s
28/09/2022,12:15:11,TEMP=28.7,BA=5.40,STAT.s
28/09/2022,12:20:11,TEMP=28.7,BA=5.40,STAT.s
28/09/2022,12:25:00,TEMP=28.7,BA=5.40,STAT.s
28/09/2022,12:30:11,TEMP=28.7,BA=5.40,STAT.s
28/09/2022,12:35:11,TEMP=28.7,BA=5.40,STAT.s
28/09/2022,12:40:00,TEMP=28.7,BA=5.40,STAT.s
28/09/2022,12:45:11,TEMP=28.7,BA=5.36,STAT.s
28/09/2022,12:50:11,TEMP=28.7,BA=5.40,STAT.s
28/09/2022,12:55:00,TEMP=28.7,BA=5.40,STAT.s
28/09/2022,13:00:11,TEMP=28.7,BA=5.36,STAT.s
28/09/2022,13:05:11,TEMP=28.7,BA=5.36,STAT.s
28/09/2022,13:10:00,TEMP=28.7,BA=5.36,STAT.s
28/09/2022,13:15:11,TEMP=28.7,BA=5.36,STAT.s
28/09/2022,13:20:11,TEMP=28.7,BA=5.36,STAT.s
28/09/2022,13:25:00,TEMP=28.7,BA=5.36,STAT.s
28/09/2022,13:30:11,TEMP=28.7,BA=5.36,STAT.s
28/09/2022,13:32:43,TEMP=28.7,BA=5.36,STAT.s
28/09/2022,13:35:11,TEMP=28.7,BA=5.36,STAT.s
28/09/2022,13:40:11,TEMP=28.7,BA=5.36,STAT.s
28/09/2022,13:45:11,TEMP=28.7,BA=5.36,STAT.s
28/09/2022,13:48:47,TEMP=28.7,BA=5.36,STAT.s
28/09/2022,13:50:11,TEMP=28.7,BA=5.32,STAT.s
28/09/2022,13:55:11,TEMP=28.7,BA=5.32,STAT.s
28/09/2022,14:00:11,TEMP=28.7,BA=5.36,STAT.s
28/09/2022,14:01:35,TEMP=28.7,BA=5.36,STAT.s
28/09/2022,14:05:11,TEMP=28.7,BA=5.36,STAT.s
28/09/2022,14:10:11,TEMP=28.7,BA=5.36,STAT.s
28/09/2022,14:12:04,TEMP=28.7,BA=5.36,STAT.s
28/09/2022,14:15:11,TEMP=28.7,BA=5.36,STAT.s
28/09/2022,14:20:11,TEMP=28.7,BA=5.36,STAT.s
28/09/2022,14:20:50,TEMP=28.7,BA=5.36,STAT.s
28/09/2022,14:25:11,TEMP=28.7,BA=5.36,STAT.s
28/09/2022,14:28:18,TEMP=28.7,BA=5.36,STAT.s
28/09/2022,14:30:11,TEMP=28.7,BA=5.32,STAT.s
28/09/2022,14:34:45,TEMP=28.7,BA=5.32,STAT.s
28/09/2022,14:34:51,TEMP=28.7,BA=5.32,STAT.h
28/09/2022,14:35:01,TEMP=28.7,BA=5.32,STAT.h
28/09/2022,14:40:01,TEMP=28.7,BA=5.32,STAT.h
28/09/2022,14:40:12,TEMP=28.7,BA=5.32,STAT.h
28/09/2022,14:40:13,TEMP=28.7,BA=5.32,STAT.h
28/09/2022,14:45:01,TEMP=28.7,BA=5.32,STAT.h
28/09/2022,14:45:08,TEMP=28.7,BA=5.32,STAT.h
28/09/2022,14:45:09,TEMP=28.7,BA=5.32,STAT.h
28/09/2022,14:49:32,TEMP=28.7,BA=5.32,STAT.h
28/09/2022,14:49:33,TEMP=28.7,BA=5.32,STAT.h
28/09/2022,14:50:05,TEMP=28.7,BA=5.32,STAT.h
28/09/2022,14:53:27,TEMP=28.7,BA=5.32,STAT.h
28/09/2022,14:53:28,TEMP=28.7,BA=5.32,STAT.h
28/09/2022,14:55:01,TEMP=28.7,BA=5.32,STAT.h
28/09/2022,15:00:01,TEMP=28.7,BA=5.32,STAT.h
28/09/2022,15:01:40,TEMP=28.7,BA=5.32,STAT.h
28/09/2022,15:01:46,TEMP=28.7,BA=5.32,STAT.h
28/09/2022,15:08:10,TEMP=28.7,BA=5.32,STAT.h
28/09/2022,15:08:16,TEMP=28.7,BA=5.32,STAT.h
28/09/2022,15:13:27,TEMP=28.7,BA=5.32,STAT.h
28/09/2022,15:13:28,TEMP=28.7,BA=5.32,STAT.h
28/09/2022,15:15:01,TEMP=28.7,BA=5.32,STAT.h
28/09/2022,15:17:50,TEMP=28.7,BA=5.32,STAT.h
28/09/2022,15:17:56,TEMP=28.7,BA=5.32,STAT.h
28/09/2022,15:21:31,TEMP=28.7,BA=5.32,STAT.h
28/09/2022,15:21:32,TEMP=28.7,BA=5.32,STAT.h
28/09/2022,15:24:40,TEMP=28.7,BA=5.32,STAT.h
28/09/2022,15:24:46,TEMP=28.7,BA=5.32,STAT.h